    Orbital elements:
        C/2003 K4 (LINEAR)
    Epoch 2004 Oct. 2.0 TT = JDT 2453280.5
    T 2004 Oct. 13.69960 TT                                 MPC
    q   1.0235623            (2000.0)            P               Q
    z  -0.0003651      Peri.  198.44208     -0.96938010     +0.08768911
     +/-0.0000195      Node    18.67741     +0.00327965     +0.93860937
    e   1.0003737      Incl.  134.25339     -0.24554320     -0.33365113
    Residuals in seconds of arc
    030528 704  0.2+  0.8-    030622 704  0.3-  0.0     030728 H41  0.5-  0.7+
    030528 704  0.2-  0.3-    030623 H41  0.8+  0.6+    030730 A32  0.1+  0.5+
    030528 704  0.6+  0.5-    030623 H41  1.2+  0.2-    030730 A32  0.2+  0.1+
    030528 704  0.1+  0.5-    030623 204  0.4-  0.7+    030730 A32  0.2+  0.2+
    030528 704  0.1-  0.0     030623 204  1.4-  0.7-    030730 A32  0.0   0.1+
    030529 196  0.2+  0.0     030623 204  1.6-  0.9-    030731 H41  0.1-  0.3+
    030529 196  0.7-  0.2-    030624 785  0.6+  0.8+    030731 H41  0.0   0.5+
    030529 196  0.3-  1.5+    030624 785  0.7-  0.2+    030731 342  0.5-  0.7+
    030529 704  0.6-  1.8+    030624 H41  0.2-  0.6+    030731 342  0.3-  0.8+
    030529 926  0.3+  0.5-    030624 H41  0.3+  1.3+    030731 636  0.4-  0.4+
    030529 704  1.1-  1.4+    030624 A46  0.6+  0.6-    030731 636  0.5-  0.6+
    030529 704  0.5+  0.5+    030624 A46  0.0   0.8-    030731 636  0.7-  0.6+
    030529 926  0.5+  0.8-    030624 A46  0.2-  0.4-    030731 636  0.4-  0.4+
    030529 926  0.3+  0.7-    030624 A46  0.3+  0.6-    030731 636  0.4-  0.4+
    030529 704  0.1+  0.8+    030624 A46  0.1+  0.7-    030801 A32  0.0   0.1+
    030529 704 (2.7-  0.4+)   030624 A46  0.5-  0.4-    030801 A32  0.0   0.1+
    030529 704  0.7+  0.2+    030624 A46  0.0   0.2-    030801 A32  0.1-  0.2+
    030529 704 (2.5-  0.5+)   030624 127  0.4-  0.2+    030801 A32  0.1-  0.1+
    030529 704  0.0   0.4+    030624 127  0.2-  0.3+    030801 H41  0.5-  0.1-
    030529 854  0.1+  0.1+    030624 127  0.5-  0.2+    030801 H41  0.3-  0.3+
    030529 704  0.3-  1.3+    030625 H41  1.0+  0.3-    030801 108  0.1+  0.5-
    030529 854  0.2-  0.1-    030627 H41  0.1-  0.2+    030801 108  0.5+  1.1+
    030529 854  0.4+  0.3+    030627 H41  0.5+  0.1-    030801 108  0.4+  0.2-
    030529 673  0.5-  0.5+    030627 J87  0.8+  0.8-    030801 108  0.3+  0.3-
    030529 673  0.4-  0.4+    030627 J87  0.6+  0.1+    030802 213  0.4-  0.4+
    030529 673  0.2-  0.6+    030627 J87  0.2-  0.2+    030802 213  0.5-  0.5+
    030529 673  0.4-  0.5+    030628 H41  0.1-  0.1-    030802 A18  0.1+  0.3-
    030529 673  0.4+  0.1-    030629 213  0.9-  0.6-    030802 213  0.2-  0.2+
    030529 673  0.2+  0.1-    030629 213  0.6-  1.1-    030802 H41  0.6-  0.6-
    030529 106  0.3-  0.2-    030629 213  0.6-  1.4-    030802 H41  0.3-  0.9-
    030530 106  0.3-  0.2-    030629 H41  0.5-  1.2+    030802 349  0.0   0.5-
    030530 620  0.2-  0.4+    030629 H41  0.5-  0.6+    030802 349  0.2+  0.6-
    030530 620  0.1+  0.5+    030629 A46  0.2+  0.1+    030802 349  0.1+  0.5-
    030530 106  0.0   0.3-    030629 A46  0.0   0.1+    030802 349  0.0   0.5-
    030530 620  0.4-  0.6+    030629 A46  0.5+  0.2-    030802 360  0.4-  0.1+
    030530 106  0.5+  0.1+    030629 A46  0.2-  0.4-    030802 360  0.4-  0.0
    030530 734  0.4-  0.2+    030629 A46  0.7+  0.4-    030802 215  0.6+  0.4+
    030530 734  0.0   0.2-    030629 A46  0.1-  0.4-    030802 215  0.6+  0.3+
    030530 G90  0.1-  0.1+    030630 212  0.1+  0.5+    030802 215  0.6+  0.5+
    030530 G90  0.0   0.2+    030630 212  0.2+  0.2+    030802 A46  0.3+  0.2+
    030530 G90  0.1-  0.4+    030630 212  0.0   0.0     030802 A46  0.2-  0.3+
    030530 704  0.2+  0.3+    030702 785  0.5-  0.2+    030802 A46  0.1+  0.4-
    030530 850  0.2+  0.0     030702 785  0.7-  0.1-    030802 A46  0.4+  0.4-
    030530 704  0.4+  0.3-    030702 A46  1.2+  0.4+    030802 A46  0.0   0.1+
    030530 850  0.1+  0.1+    030702 A46  1.5+  0.3+    030802 A46  0.2-  0.9-
    030530 704  0.4+  0.2-    030702 A46  1.6+  0.6+    030803 232  0.6+  0.5+
    030530 850  0.3+  0.2+    030702 A46  1.4+  0.2+    030803 232  0.6+  0.2+
    030530 704  0.0   0.2+    030702 A46  0.4+  0.5+    030803 232  0.4+  0.1+
    030530 704  0.0   0.3+    030702 A46  0.2+  0.3-    030803 H41  0.1-  0.0
    030530 673  0.3-  0.4+    030703 048  0.5+  0.0     030803 H41  0.0   0.0
    030530 673  0.2-  0.3+    030703 048  0.2+  0.1+    030803 349  0.3-  0.3-
    030530 673  0.4-  0.4+    030703 048  0.0   0.2-    030803 349  0.3-  0.2-
    030530 673  1.1-  1.5+    030703 048  0.0   0.1-    030803 349  0.4+  0.2+
    030530 711  0.7-  0.8+    030703 048  0.1+  0.1+    030803 349  0.2+  0.0
    030530 673  0.5-  0.4+    030703 H41  1.0+  0.1+    030803 349  0.1+  0.3-
    030530 711  1.2-  0.9+    030703 H41  0.3-  0.0     030803 048  0.7+  0.3-
    030530 673  0.3-  0.5+    030703 H41  0.6+  0.2+    030803 048  0.1+  0.5-
    030530 711  0.3-  0.6+    030704 H41  0.4-  0.5+    030803 048  0.3+  0.7-
    030530 673  0.3-  0.0     030704 H41  0.1-  0.2+    030803 048  1.2+  1.1-
    030530 673  0.2-  0.4+    030705 H41  0.1+  0.0     030803 048  0.4+  1.0-
    030530 673  0.4-  0.3+    030705 H41  0.1-  0.3+    030804 H41  0.1-  0.1+
    030530 673  0.4-  0.2+    030705 H41  0.1-  0.2+    030804 H41  0.2-  0.0
    030531 J95  0.0   0.1-    030706 461  0.3-  0.4-    030804 048  0.2-  0.2+
    030531 J95  0.2-  0.0     030706 461  0.6-  0.3-    030804 048  0.6-  0.3-
    030531 J95  0.1-  0.0     030706 461  0.2-  0.4-    030804 048  0.3-  0.3-
    030531 204  1.5+  1.2+    030706 458  0.1-  1.0+    030804 048  0.4-  0.7-
    030531 A50 (0.5+  2.5-)   030706 458  1.0+  0.4+    030804 048  0.5-  0.7-
    030531 A50 (0.8+  3.1-)   030706 458  0.7-  0.3+    030804 561  0.2-  0.2+
    030531 A50  0.1-  0.1-    030706 H41  0.1-  1.1+    030804 561  0.4-  0.2+
    030531 A50  0.2-  0.4+    030706 H41  0.1-  0.3+    030804 561  0.0   0.5-
    030531 A50  0.4+  0.0     030707 704 (2.9-  0.4+)   030804 A32  0.1+  0.2+
    030601 213  0.2-  1.3-    030707 704  0.2-  1.3+    030804 A32  0.1-  0.2+
    030601 213  0.1-  0.9-    030707 704 (0.7-  2.5+)   030805 A32  0.0   0.1+
    030601 213  0.3+  0.2-    030707 704  1.7-  1.6+    030805 H72  0.4-  0.8+
    030601 850  0.5-  0.5-    030707 A46  0.3+  0.0     030805 H72  0.7-  0.3-
    030601 850  0.3+  0.1-    030707 A46  0.5+  0.3+    030805 H72  0.4+  0.6-
    030601 850  0.3-  0.1-    030707 A46  0.2+  0.1+    030805 048  0.1-  0.1-
    030601 372  0.6+  0.7+    030707 A46  0.5+  0.0     030805 048  0.2+  0.8-
    030601 372  0.6+  0.2+    030707 A46  0.6+  0.0     030805 048  0.6+  0.8-
    030601 360  0.4-  0.3-    030707 A46  0.7+  0.0     030805 048  0.6+  1.1-
    030601 360  0.5-  0.2-    030707 127  0.0   0.7-    030805 048  0.4+  0.9-
    030601 360  0.4-  0.1-    030707 127  0.1+  0.9-    030805 442  0.2+  0.9+
    030602 H72  0.0   0.6+    030707 127  0.3+  0.9-    030805 A32  0.1+  0.3+
    030602 H72  0.3+  0.2-    030708 048  1.2+  0.4-    030805 A32  0.1+  0.0
    030602 H72  0.6-  0.1+    030708 048  1.3+  0.4-    030805 A32  0.1+  0.2+
    030602 H72  0.8+  1.2-    030708 048  0.6+  0.8-    030806 A46  0.2-  0.4+
    030602 H72  1.0-  0.5-    030708 048  0.9+  0.9-    030806 A46  0.1-  0.4+
    030602 H72  0.8-  0.2-    030708 048  0.1+  0.9-    030806 A46  0.4+  0.3+
    030602 651  0.1+  0.1+    030708 785  0.6-  0.2-    030806 A46  0.6+  0.2+
    030602 651  0.0   0.1-    030708 785  1.0-  0.3+    030806 A46  0.2+  0.2-
    030602 G90  0.0   0.0     030708 108  0.3-  0.2-    030806 A46  0.3-  0.0
    030602 G90  0.0   0.0     030708 108  0.5+  0.1-    030806 048  0.4+  0.0
    030602 G90  0.0   0.1-    030708 108  0.1-  0.9-    030806 048  0.2+  0.0
    030602 349  1.3-  0.6-    030708 A46  0.5+  0.9-    030806 048  0.0   0.2+
    030602 349  0.7-  0.0     030708 A46  0.4+  0.2-    030806 048  0.3-  0.1+
    030602 349  0.4+  0.0     030708 A46  0.0   0.4+    030806 048  0.0   0.1-
    030602 349  0.3-  0.3-    030708 A46  0.3+  0.4+    030806 939  0.0   0.1-
    030602 349  0.7-  0.6-    030708 A46  0.2+  0.0     030806 939  0.1+  0.0
    030602 246  0.7+  0.4-    030708 A46  0.6+  0.3+    030807 939  0.5+  0.3+
    030602 246  0.9+  0.6-    030709 H41  0.3+  0.2+    030807 A46  0.0   0.4+
    030602 246  1.0+  0.3-    030709 H41  0.6-  0.3+    030807 A46  0.1+  0.3+
    030602 246  0.8+  0.0     030709 947  0.3-  0.4+    030807 A46  0.4+  0.4+
    030603 246  1.0+  0.1-    030709 947  0.2-  0.6+    030807 A46  0.1-  0.5+
    030603 246  0.9+  0.1+    030709 127  0.8-  0.6-    030807 A46  0.2-  0.3+
    030603 246  1.0+  0.0     030709 127  0.8-  0.3-    030807 A46  0.1+  0.0
    030603 246  0.7+  0.1+    030709 127  0.7-  0.3-    030807 A32  0.3+  0.3+
    030603 J95  0.0   0.3+    030709 127  0.8-  0.0     030807 A32  0.1+  0.4+
    030603 J95  0.1-  0.6-    030710 213  0.7-  0.2-    030807 A32  0.0   0.5+
    030603 854  0.1+  0.1-    030710 213  0.6-  0.2-    030807 A32  0.4+  0.3+
    030603 854  1.7+  1.3-    030710 J97  0.3-  0.3-    030807 A32  0.4+  0.5+
    030603 H72  1.8-  0.8-    030710 A46  0.2+  1.0-    030807 H41  0.2-  0.7+
    030603 H72  1.1-  0.3-    030710 A46  0.4+  0.1-    030807 H41  0.2-  0.0
    030603 H72  1.7-  1.0+    030710 A46  0.9+  0.5-    030807 A46  0.7+  0.1+
    030603 H72 (2.6-  2.3+)   030710 A46  0.7+  0.5-    030807 A46  0.2+  0.2+
    030603 854  0.5-  0.9+    030710 A46  0.9+  1.1-    030807 A46  0.5+  0.3+
    030603 854 (2.6+  2.4-)   030710 J97  0.2+  0.4+    030807 A46  0.0   0.4+
    030603 G90  0.2-  0.1+    030710 A46  1.0+  0.9-    030807 A46  0.2-  0.3+
    030603 G90  0.1-  0.0     030711 A32  0.2+  0.5+    030807 A46  0.0   0.0
    030603 G90  0.1-  0.0     030711 A32  0.3+  0.2-    030809 H41  0.2-  0.1+
    030603 854  1.0+  1.6+    030711 A32  0.7-  1.1+    030809 H41  0.1-  0.1-
    030603 854  0.1+  0.3+    030711 A32  0.2-  0.7+    030809 120  0.4-  0.1-
    030604 246  0.2+  0.1+    030711 H41  0.2+  0.3+    030809 120  0.8-  0.3+
    030604 246  0.1+  0.1+    030711 H41  0.8-  0.6+    030809 048  0.2+  0.7-
    030604 246  0.1+  0.1+    030711 H41  0.2+  0.1+    030809 048  0.1-  0.6-
    030604 246  0.1+  0.0     030711 176  0.3+  0.1-    030809 048  0.9-  0.5-
    030604 246  0.1+  0.0     030711 176  0.1+  0.1+    030809 048  1.1-  0.6-
    030604 704  0.8+  0.1-    030712 176  0.1-  0.2+    030809 048  1.1-  0.5-
    030604 704  0.6+  0.5+    030712 176  0.1-  0.2+    030809 A32  0.0   0.2-
    030604 704  0.8+  0.3+    030713 H41  1.0+  0.3+    030809 A32  0.2-  0.1+
    030604 704  0.6+  0.1+    030713 H41  0.4-  0.1+    030809 A32  0.0   0.0
    030604 704  0.3+  0.1+    030713 H41  0.4-  0.2+    030810 A32  0.1-  0.1-
    030605 A46  0.5+  0.2-    030713 448  0.3-  0.2+    030810 349  1.3-  0.3+
    030605 A46  0.5+  0.1+    030713 448  0.3-  0.4+    030810 349  1.0-  0.3+
    030605 A46  0.6+  0.1+    030713 448  0.2-  0.4+    030810 349  0.8-  0.3+
    030605 A46  0.2+  0.3-    030713 170  0.3+  0.4+    030810 349  0.6-  0.1-
    030605 A46  0.4+  0.2+    030713 170  0.7+  0.3+    030810 A46  0.6+  1.0-
    030605 A46  0.1+  0.4-    030713 170  1.1+  0.1-    030810 A46  0.6+  0.5-
    030605 A46  0.5-  0.7-    030714 H41  0.8+  0.3+    030810 A46  0.6+  1.1-
    030605 A46  0.4+  0.3-    030714 H41  0.2-  0.1-    030810 A46  0.2-  1.0-
    030605 A46  0.5-  0.2+    030714 A46  0.5+  0.8-    030810 A46  0.4+  1.1-
    030605 A46  0.6-  0.1+    030714 A46  0.3+  0.3-    030810 A46  0.2+  0.7-
    030605 A46  0.7-  0.2-    030714 A46  0.8+  0.4-    030810 048  0.3-  0.0
    030605 A46  0.3-  0.3-    030714 A46  0.3+  0.6-    030810 048  0.2-  0.4-
    030605 A46  0.8-  0.2-    030714 A46  0.7+  0.0     030810 048  0.5-  0.5-
    030605 A46  0.5-  0.3-    030714 A46  0.2+  0.0     030810 048  0.7-  0.3-
    030605 A46  0.3-  0.2+    030715 636  0.2-  0.1+    030810 048  0.1-  0.4-
    030605 A46  0.3-  0.3-    030715 636  0.1-  0.3+    030812 048  0.5+  0.4-
    030605 A46  1.0-  0.2+    030715 636  0.1-  0.0     030812 048  0.1+  0.3-
    030605 A46  0.8-  0.8-    030715 636  0.0   0.3+    030812 048  0.1-  0.1-
    030605 048  0.0   0.5-    030715 A32  0.4+  0.3-    030812 048  0.6-  0.1+
    030605 048  0.8+  0.5-    030715 A32  1.0+  0.3-    030812 048  1.0-  0.2+
    030605 048  1.1+  0.9-    030715 A32  0.5-  0.5-    030814 762  0.4+  0.9+
    030605 854  0.1+  0.1-    030715 A32  0.2-  0.5-    030814 762  0.0   0.5+
    030605 854  0.0   0.0     030715 H44  1.4-  0.0     030814 762  0.2-  0.7+
    030605 372  0.8+  0.7+    030715 H41  0.4-  0.5+    030814 785  0.7+  0.2+
    030605 360  0.5-  0.0     030715 H41  0.1-  0.2+    030814 785 (2.2+  2.9+)
    030605 360  0.3-  0.1-    030715 A46  1.7+  0.9+    030814 785  0.1+  0.0
    030606 785  0.7-  0.4-    030715 A46  0.1+  0.6-    030814 785  1.1+  0.6+
    030606 785  0.2-  0.4-    030715 A46  0.3+  0.1-    030815 048  1.0-  0.5-
    030607 372 (2.8+  0.3+)   030715 A46  0.5+  0.1+    030815 048  0.3-  0.3-
    030608 H41 (3.1-  0.8-)   030715 A46  0.2-  0.1+    030815 048  0.1+  0.5-
    030609 H41  0.1+  0.3+    030715 A46  0.3-  0.1-    030815 048  0.8+  0.4-
    030609 H41  0.1+  0.3+    030716 048  0.5-  0.4-    030815 048  0.6-  0.1-
    030609 A46  0.2-  0.4-    030716 048  1.0-  0.7-    030815 A46  0.2+  0.3-
    030609 A46  0.4-  0.1-    030716 048  0.6-  0.7-    030815 A46  0.1+  0.1-
    030609 A46  0.0   0.8-    030716 048  0.8-  0.5-    030815 A46  0.6+  0.5-
    030609 A46  0.0   0.0     030716 048  1.3-  0.8-    030815 A46  0.6+  0.0
    030609 A46  0.1+  0.1+    030716 118  0.2-  0.6+    030815 A46  0.4+  0.5-
    030609 A46  0.4-  0.4-    030716 118  0.0   0.4+    030815 A46  0.2+  0.2+
    030609 A46  0.5-  0.3-    030716 118  0.2-  0.6+    030816 785 (2.7-  0.8-)
    030609 A46  0.2-  0.5-    030716 118  0.0   0.4+    030816 785  0.7-  0.6-
    030609 A46  0.1-  0.8-    030716 H41  0.0   0.2-    030816 785  1.4-  0.4+
    030609 A46  0.1-  0.7-    030716 H41  0.2-  0.4-    030816 H41  0.0   0.3+
    030609 A46  0.2-  0.1-    030716 H41  0.6-  0.0     030816 H41  0.1-  0.4+
    030609 A46  0.2-  0.0     030717 H72  0.8+  0.2+    030816 785  0.1-  0.5+
    030609 A46  0.4-  0.4-    030717 H72  0.3+  0.1+    030816 785  1.9-  0.1-
    030609 A46  0.0   0.2+    030717 H72  0.6+  0.5-    030816 048  0.2-  0.1-
    030609 A46  0.0   0.5-    030717 H72  1.0-  0.2+    030816 048  0.3+  0.1-
    030610 704  0.1+  0.1-    030717 H41  0.0   0.7+    030816 048  0.1+  0.2-
    030610 704  0.3+  0.1+    030717 H41  0.5-  0.4+    030816 048  0.5+  0.2-
    030610 704  0.4+  0.5+    030718 A46  0.7-  0.6-    030817 H41  0.1+  0.5-
    030610 704  0.1+  0.6+    030718 A46  0.6-  0.7-    030817 H41  1.1+  0.7-
    030611 620  0.4-  0.1-    030718 A46  0.2-  0.4-    030818 785  1.4+  0.4+
    030611 620  0.0   0.1+    030718 A46  0.9-  0.1+    030818 785 (0.4+  2.9-)
    030611 620  0.1-  0.0     030718 A46  0.2-  0.6-    030818 785  0.6-  0.3-
    030611 620  0.0   0.1+    030718 A46  0.4-  0.5-    030818 785  0.5+  0.0
    030611 704  0.2-  0.3+    030718 442  0.1+  0.1+    030818 785  0.3-  0.0
    030611 704  0.3+  0.7+    030719 442  0.6+  0.2+    030818 H41  0.1-  0.6-
    030611 704  0.1-  1.1+    030719 232  0.1+  0.4-    030818 H41  1.3+  0.0
    030611 A46  0.0   0.5+    030719 232  0.2+  0.4-    030818 442  1.8-  2.0-
    030611 A46  0.0   0.2+    030719 232  0.7-  0.5-    030818 232  1.1+  1.4+
    030611 A46  0.2-  0.1-    030719 130  0.3-  0.5+    030818 232  0.4-  0.1-
    030611 A46  0.4+  0.1-    030719 130  0.0   0.4+    030819 232  0.2-  0.2+
    030611 A46  0.5-  0.1+    030719 130  0.4+  0.5+    030819 619  0.8+  0.4+
    030611 A46  0.7+  0.1-    030719 130  0.4+  0.4+    030819 442  1.8+  0.1-
    030611 A46  0.3-  0.9-    030719 J87  0.1-  0.3+    030819 442 (2.4+  0.2+)
    030611 A46  0.3-  0.2-    030719 130  0.0   0.3+    030819 213  0.1-  0.0
    030611 A46  0.2-  0.0     030719 J87  0.4-  0.2+    030819 213  0.2-  0.3-
    030611 A46  0.5-  0.8-    030719 130  0.5-  0.4+    030819 213  0.0   0.2-
    030611 A46  0.2-  0.4-    030719 J87  0.3+  0.1+    030820 204  0.1-  0.1+
    030611 A46  0.1+  0.8-    030719 J87  0.9-  0.2+    030820 204  0.3-  0.4+
    030611 A46  0.4+  0.5-    030719 A46  0.2+  0.6+    030820 204  0.2-  0.4+
    030611 A46  0.3-  0.1+    030719 A46  0.5-  0.4+    030820 642  2.0-  0.9-
    030611 A46  0.5+  0.2-    030719 A46  0.1-  0.2+    030820 642  0.5-  0.1-
    030612 A46  0.2-  0.0     030719 A46  0.2-  0.3+    030820 642  0.3-  0.4+
    030612 A46  0.8+  0.1+    030719 A46  0.1+  0.3+    030820 300  0.8+  1.4+
    030612 A46  0.1-  0.9-    030719 A46  0.3-  0.1+    030820 300  0.0   1.5+
    030612 A46  0.0   0.2-    030719 504  0.0   0.0     030820 300 (0.6+  3.3+)
    030612 704  0.4+  0.5-    030719 504  0.1-  0.3-    030820 300  0.2-  0.2-
    030612 704  1.0+  0.1-    030719 504  0.5-  0.2-    030820 048  0.4+  0.6-
    030612 704  0.6+  0.2+    030720 118  0.3-  0.5+    030820 048  0.5+  0.5-
    030612 704  0.5+  0.0     030720 118  0.3-  0.6+    030820 048  0.0   0.1-
    030612 704  0.4+  0.1-    030720 H72  0.2-  0.3-    030820 048  1.5-  0.2-
    030616 785  0.0   0.7-    030720 H72  0.1+  0.1+    030820 048  1.1-  0.0
    030616 785  0.7+  0.5+    030720 H72  0.3+  0.2-    030820 A46  0.3-  0.3-
    030616 785  0.2-  1.2+    030720 704 (1.0+  3.6+)   030820 A46  0.0   0.0
    030617 785  0.2-  0.3+    030720 704 (0.9+  3.6+)   030820 017  1.3-  1.4-
    030617 785  0.8-  0.1+    030720 704 (1.1+  3.5+)   030820 017  0.6+  0.7+
    030617 785  0.6+  0.6-    030720 704 (1.1+  4.1+)   030820 017  1.4+  0.2+
    030617 A46  0.1+  0.9-    030720 704 (1.2+  4.0+)   030821 017  1.1+  1.3+
    030617 A46  0.1+  0.5-    030720 A46  0.2-  0.4-    030821 704  0.2+  0.1+
    030617 A46  0.3-  0.1+    030720 A46  0.4-  0.5-    030821 704  0.9+  0.0
    030617 A46  0.6-  0.1-    030720 A46  0.1-  0.1-    030821 704  0.6+  0.5+
    030617 A46  0.5-  0.2-    030720 A46  0.1-  0.3-    030821 704  0.5+  0.9+
    030617 A46  0.0   0.8-    030720 A46  0.2-  0.0     030821 704  0.5+  0.9+
    030620 854  0.1+  0.2+    030720 A46  0.1-  0.1-    030821 785  0.8-  0.3-
    030620 854  0.1-  0.3-    030721 900  0.3+  0.4+    030821 785  0.2-  0.2-
    030620 854  0.1+  0.2-    030721 900  0.3+  0.4+    030821 785  0.2+  0.3+
    030620 854  0.4-  0.0     030723 A32  1.0-  0.7+    030821 360  0.4-  0.3+
    030620 349  0.9+  1.4-    030723 A32  0.8-  0.8+    030821 360  0.5-  0.3+
    030620 349  0.5+  0.5-    030723 A32  0.7-  0.8+    030822 235  0.1-  1.6+
    030620 349  0.1+  0.0     030723 A32  0.1+  0.9+    030822 A46  0.3+  0.4-
    030620 349  0.6+  0.4+    030723 A32  0.1+  0.9+    030822 A46  0.1-  0.5-
    030620 349  0.2+  0.6-    030723 619  0.4-  0.1+    030822 A46  0.0   0.3-
    030620 A46  0.0   0.6+    030723 619  0.4+  0.6-    030822 A46  0.2-  0.5-
    030620 A46  0.4-  1.1+    030725 A46  0.1-  0.2+    030822 A46  0.5-  0.5-
    030620 A46  0.1+  0.8+    030725 A46  0.1-  0.2+    030822 A46  0.1-  0.8-
    030620 A46  0.1+  0.5+    030725 A46  0.0   0.3+    030822 442  0.1+  0.6+
    030620 A46  1.0+  0.1-    030725 A46  0.3-  0.0     030823 233  1.2+  0.1-
    030620 A46  1.2+  0.2+    030725 A46  0.2+  0.3-    030823 233  0.4+  0.1-
    030621 A46  0.3-  0.0     030725 A46  0.1+  0.2-    030823 233  0.9+  0.4+
    030621 A46  0.2+  0.1+    030726 442  0.6+  0.6+    030823 233  0.2+  0.1-
    030621 A46  0.1+  0.3-    030726 442  0.6+  0.4+    030823 233  0.0   0.2+
    030621 A46  0.5+  1.0-    030726 232  1.3-  0.1+    030823 213  0.3+  0.1+
    030621 A46  0.3-  0.6-    030726 232  0.5-  0.9+    030823 213  0.2+  0.2+
    030621 A46  0.2-  0.5-    030726 900  0.4+  0.6-    030823 213  0.3-  0.0
    030621 215  0.0   0.4+    030726 900  0.2+  0.3+    030824 A32  0.4+  0.4+
    030621 215  0.1-  0.1+    030726 213  0.1+  0.4+    030824 A32  0.1+  0.4+
    030621 215  0.1-  0.1+    030726 213  0.3+  0.1+    030824 A32  0.1+  0.6+
    030622 213  0.1-  0.0     030727 A46  0.5-  0.2+    030825 785  0.9-  0.1-
    030622 213  0.2-  0.2-    030727 A46  0.1-  0.1-    030825 785  1.3-  0.2-
    030622 J97  1.2+  1.3-    030727 A46  0.3-  0.2+    030825 785  0.1-  0.5+
    030622 J97  0.7+  0.1-    030727 A46  0.0   0.2-    030825 785  1.1-  0.1+
    030622 J97  0.9+  0.8+    030727 A46  0.7-  0.1+    030825 048  0.6+  0.5-
    030622 H41  0.4-  0.1+    030727 A46  0.7-  0.6-    030825 048  1.0+  0.1-
    030622 H41  0.1-  0.2+    030727 939  0.1+  0.2-    030825 048  0.7+  0.0
    030622 704  0.2+  0.8+    030727 939  0.0   0.2-    030825 048  0.5+  0.4-
    030622 704  0.1-  0.1-    030727 939  0.2-  0.2-    030825 048  0.7+  0.2-
    030622 704  0.3-  0.5-    030728 H41  0.0   0.4+
    030622 704  0.3-  0.3-    030728 H41  0.2-  0.5+
    
